SCP
0 0 0 0 0 0 0 0 0 0 0 0 0 0 1 2 2 2 1 1 1 1 1 1 2 2 2 2 1 0 0 1 1 1 2 2 1 1 1 0 0 0 0 0
0 0 0 0 0 0 0 0 0 0 0 0 0 0 1 1 2 2 1 1 1 1 1 1 2 3 2 2 1 0 0 1 1 2 2 2 2 1 1 0 0 0 0 0
0 0 0 0 0 1 1 1 0 0 0 0 1 1 1 1 1 1 1 1 1 1 1 2 2 3 2 1 1 0 0 1 1 2 3 3 2 2 1 1 0 0 0 0
0 0 0 0 0 1 1 1 1 1 1 1 1 1 2 1 1 1 1 1 1 1 1 2 2 2 2 1 1 1 1 1 2 3 3 3 3 2 2 1 1 0 0 0
0 0 0 0 0 0 0 0 0 0 0 0 1 1 2 1 1 1 1 1 1 1 2 2 2 2 1 1 1 1 1 2 3 4 4 4 3 3 2 2 1 1 0 0
0 0 0 0 0 0 0 0 0 0 0 0 1 1 1 1 1 1 1 1 1 1 2 2 2 1 1 1 1 1 2 3 4 5 5 5 4 3 3 2 2 1 1 0
0 0 0 0 0 0 0 0 0 0 1 1 1 1 1 1 1 1 1 1 1 1 1 2 2 2 1 1 1 1 2 2 3 5 5 5 5 4 3 2 2 1 1 1
0 0 0 0 0 0 0 0 0 1 1 1 1 1 1 1 1 1 1 1 1 1 1 1 2 2 1 1 1 1 1 2 3 4 4 5 5 4 3 2 2 1 1 1
0 0 0 0 0 0 0 0 0 1 1 1 1 1 1 1 1 1 1 1 1 1 1 1 1 1 1 1 1 1 1 2 3 3 4 4 4 3 2 1 1 1 1 1
0 0 0 0 0 0 0 0 0 0 0 0 0 1 1 1 1 1 1 1 1 1 1 1 1 1 1 1 1 1 1 1 2 3 3 3 3 2 1 1 1 1 1 1
0 0 0 0 0 0 0 0 0 0 0 0 0 0 0 1 1 1 1 1 1 1 1 1 1 1 1 0 0 1 1 1 1 2 2 3 3 2 1 0 0 0 0 1
0 0 0 0 0 0 0 0 0 0 0 0 0 0 0 0 1 1 1 1 1 1 1 1 1 1 1 0 0 0 0 0 1 1 2 2 3 2 1 0 0 0 0 0
0 0 0 0 0 0 0 0 0 0 0 0 0 0 0 0 1 1 1 1 1 1 1 1 1 1 0 0 0 0 0 0 0 1 1 2 2 2 2 1 0 0 0 0
0 0 0 0 0 0 0 0 0 0 0 0 0 0 0 0 0 1 1 1 0 0 0 0 0 0 0 0 0 0 0 0 0 1 1 1 2 2 2 1 0 0 0 0
0 0 0 0 0 0 0 0 0 0 0 0 0 0 0 0 0 0 0 0 0 0 0 0 0 0 0 0 0 0 0 1 1 1 1 1 1 2 1 1 0 0 0 0
0 0 0 0 0 0 0 0 0 0 0 0 0 0 0 0 0 0 0 0 0 0 0 0 0 0 0 0 0 0 1 1 1 1 0 1 1 1 1 0 0 0 0 0
0 0 0 0 0 0 0 0 0 0 0 0 0 0 0 0 0 0 0 0 0 0 0 0 0 0 0 0 0 0 0 0 0 0 0 0 0 0 0 0 0 0 0 0
0 0 0 0 0 0 0 0 0 0 0 0 0 0 0 0 0 0 0 0 0 0 0 0 0 0 0 0 0 0 0 0 0 0 0 0 0 0 0 0 0 0 0 0
0 0 0 0 0 0 0 0 0 0 0 0 0 0 0 0 0 0 0 0 0 0 0 0 0 0 0 0 0 0 0 0 0 0 0 0 0 0 0 0 0 0 0 0
0 0 0 0 0 0 0 0 0 0 0 0 0 0 0 0 0 0 0 0 0 0 0 0 0 0 0 0 0 0 0 0 0 0 0 0 0 0 0 0 0 0 0 0
0 0 0 0 0 0 0 0 0 0 0 0 0 0 0 0 0 0 0 0 0 0 0 0 0 0 0 0 0 0 0 0 0 0 0 0 0 0 0 0 0 0 0 0
0 0 0 0 0 0 0 0 0 0 0 0 0 0 0 0 0 0 0 0 0 0 0 0 0 0 0 0 0 0 0 0 0 0 0 0 0 0 0 0 0 0 0 0
0 0 0 0 0 0 0 0 0 0 0 0 0 0 0 0 0 0 0 0 0 0 0 0 0 0 0 0 0 0 0 0 0 0 0 0 0 0 0 0 0 0 0 0
0 0 0 0 0 0 0 0 0 0 0 0 0 0 0 0 0 0 0 0 0 0 0 0 0 0 0 0 0 0 0 0 0 0 0 0 0 0 0 0 0 0 0 0
0 0 0 0 0 0 0 0 0 0 0 0 0 0 0 0 0 0 0 0 0 0 0 0 0 0 0 0 0 0 0 0 0 0 0 0 0 0 0 0 0 0 0 0
0 0 0 0 0 0 0 0 0 0 0 0 0 0 0 0 0 0 0 0 0 0 0 0 0 0 0 0 0 0 0 0 0 0 0 0 0 0 0 0 0 0 0 0
0 0 0 0 0 0 0 0 0 0 0 0 0 0 0 0 0 0 0 0 0 0 0 0 0 0 0 0 0 0 0 0 0 0 0 0 0 0 0 0 0 0 0 0
Wind_Speed
4 4 3 4 5 5 6 7 7 7 7 9 6 5 4 4 4 5 6 8 10 12 11 11 11 11 11 11 10 10 10 10 10 9 8 8 8 8 7 8 9 8 7 7
2 3 4 4 6 6 7 6 7 6 8 6 4 2 2 3 5 6 8 9 11 11 12 12 13 12 12 11 11 11 11 11 9 9 9 8 8 8 8 7 7 7 8 8
3 3 1 5 6 6 5 4 5 8 7 3 4 4 3 3 4 6 7 8 10 12 13 13 14 13 14 13 11 11 11 10 10 10 10 10 9 9 9 8 7 7 7 8
1 0 5 7 2 2 3 4 4 3 3 3 4 5 3 2 3 3 4 6 7 9 11 11 11 11 11 11 12 12 11 11 11 11 10 9 9 9 8 7 7 7 7 8
3 3 5 4 1 0 1 4 2 2 5 5 5 3 3 2 2 3 3 4 6 7 9 10 11 11 11 11 12 12 12 12 11 11 11 10 11 10 8 7 7 7 6 8
3 3 5 4 2 2 0 4 2 1 4 5 4 2 4 4 5 5 3 2 3 4 5 8 9 11 12 12 12 13 13 12 11 11 11 12 11 9 7 7 7 7 7 7
3 3 5 3 4 2 2 5 3 2 3 3 2 4 4 6 6 5 4 2 1 4 5 6 8 11 12 12 13 12 10 9 10 11 11 10 9 7 7 6 6 6 6 5
3 3 5 3 2 1 4 4 4 4 3 3 3 4 4 5 5 6 5 4 2 3 3 4 7 10 10 9 8 8 8 9 9 10 9 8 8 7 7 7 7 7 6 5
5 5 4 2 3 4 4 4 4 4 3 2 3 3 3 4 4 5 5 5 4 4 4 4 5 8 8 6 6 8 8 8 8 8 7 7 9 8 6 6 6 5 5 5
2 4 4 4 3 4 3 2 3 2 2 1 1 2 3 4 5 6 6 6 5 5 6 5 4 5 5 5 7 8 7 7 6 7 6 5 5 5 5 5 5 5 5 5
2 4 4 4 4 4 4 3 4 4 3 3 3 4 4 5 6 6 7 6 6 6 6 6 6 5 5 5 7 7 6 5 5 5 6 5 4 4 5 4 5 6 5 4
3 3 1 3 4 5 5 5 4 5 6 6 5 6 7 7 7 7 7 7 8 8 8 7 7 7 6 4 6 7 6 5 4 4 4 4 4 3 4 4 5 5 4 4
2 0 1 1 4 6 6 6 5 6 7 7 7 8 9 8 8 9 9 9 9 9 8 8 8 8 7 5 6 7 6 5 4 4 4 4 4 5 3 3 5 4 2 3
0 2 2 2 2 3 5 6 7 8 9 8 9 9 9 10 10 11 10 9 9 10 10 10 10 9 7 6 7 7 6 6 5 4 4 4 4 3 3 3 3 2 2 2
2 2 2 2 3 3 4 6 8 9 9 9 9 9 9 10 11 10 9 8 10 12 11 11 11 9 7 8 9 8 6 5 4 4 4 4 4 4 3 4 3 3 2 2
3 5 5 6 6 5 6 8 9 8 8 9 9 9 9 9 9 9 9 10 11 11 9 10 10 8 7 9 9 7 6 9 7 5 5 5 4 4 4 3 3 2 2 1
4 4 4 5 6 6 7 7 8 7 8 9 8 8 9 9 10 9 9 9 9 9 9 9 8 7 8 8 8 6 5 6 9 6 5 4 4 4 4 3 3 2 1 1
3 3 3 5 5 6 7 8 8 7 7 7 8 9 9 9 8 7 7 8 10 11 10 8 7 8 8 8 6 5 5 5 5 5 5 5 5 4 4 3 3 3 2 2
6 6 6 6 6 6 6 6 6 6 6 7 8 8 7 7 6 6 7 9 9 9 7 7 9 9 8 8 8 5 6 6 6 5 5 5 5 4 3 3 2 2 2 1
7 7 7 7 7 7 6 6 6 6 5 6 7 7 7 6 6 6 8 7 5 3 3 5 7 7 6 7 8 5 6 6 5 4 4 4 4 3 3 2 2 2 2 1
8 8 8 7 7 7 6 6 6 6 5 6 7 7 6 5 5 5 6 5 4 4 5 7 6 5 5 6 7 5 5 5 4 4 3 3 3 3 3 3 2 2 2 2
6 7 7 7 7 7 5 5 6 6 6 6 6 6 6 6 5 5 5 2 2 4 4 4 4 5 6 7 5 5 5 4 4 3 3 3 2 2 2 2 2 2 2 2
6 6 6 6 6 5 5 5 6 6 6 6 5 5 5 4 3 3 3 2 2 5 4 4 5 7 8 5 4 4 4 4 4 3 3 2 2 2 2 2 2 2 2 2
5 5 5 4 5 6 6 5 5 5 5 5 4 4 4 3 3 2 1 2 4 5 4 4 7 8 7 4 4 4 4 3 3 3 3 3 3 2 2 2 2 2 3 3
5 5 6 6 6 4 4 4 6 6 5 4 5 4 3 2 2 2 2 3 5 5 4 5 7 7 5 4 4 4 3 3 3 3 3 2 2 2 2 2 2 2 3 3
6 5 5 5 4 3 3 4 4 3 3 4 3 3 3 3 3 3 3 4 5 5 4 3 3 4 3 3 3 3 3 3 3 3 3 2 3 3 2 3 3 3 3 3
6 5 5 5 4 3 3 3 4 3 3 3 2 2 2 3 3 3 4 3 3 3 3 3 3 3 3 3 3 3 3 3 3 3 3 3 3 3 3 3 3 3 3 3
Wind_Direction
225 237 220 228 241 216 204 202 207 236 238 261 268 264 256 227 203 187 189 190 190 189 187 184 181 181 183 184 179 175 175 180 185 181 177 174 174 176 175 179 185 183 183 187
266 250 242 255 255 237 232 227 231 252 265 264 281 285 276 240 205 197 199 198 196 192 187 188 188 186 184 183 181 176 180 186 180 174 175 179 179 176 177 183 182 179 187 189
246 278 314 260 240 227 219 219 206 229 249 300 314 315 309 283 231 211 211 204 198 196 194 192 191 187 186 184 176 178 185 184 179 178 181 184 183 178 184 186 182 187 194 194
192 46 231 244 264 230 216 250 231 243 283 283 271 286 288 280 260 248 224 211 205 203 201 194 188 184 179 174 176 182 186 186 184 182 185 181 180 184 188 184 188 195 199 202
151 211 266 287 300 334 230 267 254 266 297 303 304 315 323 354 339 271 253 233 214 203 199 186 180 175 169 175 180 185 189 190 187 183 182 181 187 190 188 185 194 197 196 201
153 192 235 252 305 324 114 272 259 270 296 311 338 329 297 344 332 317 307 260 226 189 169 173 175 165 170 178 182 191 193 189 183 181 183 187 190 188 181 185 197 197 203 204
184 221 259 282 310 345 187 254 309 293 282 290 256 233 275 316 326 327 329 321 180 146 158 172 164 163 175 181 192 193 183 175 176 180 184 186 182 179 176 182 188 194 201 206
164 209 256 322 346 220 243 287 300 292 276 264 265 279 300 326 341 350 2 8 43 119 130 138 151 160 171 185 185 166 163 171 178 180 181 179 172 175 175 180 189 197 197 205
192 218 255 290 266 280 273 273 283 285 288 259 274 293 322 348 357 2 13 25 41 84 92 98 129 146 159 169 150 148 154 165 171 169 172 171 172 174 175 180 188 195 195 204
262 273 286 297 300 307 303 270 294 313 327 337 309 338 7 19 23 24 25 33 44 70 84 83 97 120 133 129 133 136 150 160 159 159 161 160 161 165 170 176 182 189 194 199
265 289 319 338 339 340 357 20 44 41 38 31 51 46 41 42 40 39 38 37 47 63 75 78 85 86 88 105 123 131 138 140 140 147 151 149 145 151 164 172 181 182 193 191
235 250 240 323 354 23 39 44 49 54 50 45 55 62 60 57 50 49 49 50 56 59 64 66 72 72 64 80 113 122 120 120 126 131 134 138 135 114 83 113 132 151 161 162
229 353 120 44 27 35 45 43 48 68 73 67 59 63 65 61 56 56 55 57 64 66 67 67 67 64 59 71 91 103 111 116 116 119 127 134 137 140 131 85 75 88 118 144
95 91 80 60 51 45 60 57 61 68 69 69 69 66 64 64 60 55 52 53 63 69 67 66 64 54 46 67 82 88 93 96 102 107 114 119 124 130 135 133 116 68 58 103
49 73 109 94 77 68 69 73 71 72 75 72 69 68 64 64 62 55 49 53 61 63 60 62 61 49 45 69 77 78 80 81 87 92 94 98 102 105 104 107 108 103 85 70
72 72 78 72 71 72 76 77 77 73 76 78 73 69 67 68 64 56 50 53 61 59 54 57 54 42 49 65 70 69 71 80 86 88 88 89 93 98 100 103 106 108 109 98
96 89 86 82 77 77 80 83 84 80 78 78 77 76 75 75 69 60 54 53 61 59 54 56 50 44 52 61 69 72 73 75 78 80 81 86 90 90 94 98 102 100 83 73
92 104 114 115 109 97 85 83 84 83 84 87 86 81 77 77 75 65 56 57 60 53 44 43 49 53 52 55 64 68 71 69 69 71 70 72 75 77 81 84 87 85 62 49
85 89 90 92 92 93 92 91 88 84 84 86 85 80 77 75 71 66 60 58 57 51 29 34 50 55 52 54 65 68 73 73 70 67 66 68 68 66 70 73 68 59 49 39
78 85 89 89 85 87 87 88 87 80 80 90 89 81 73 67 68 69 67 60 46 40 30 45 54 55 51 52 61 67 70 72 73 70 68 68 67 63 58 57 54 41 26 14
77 81 84 86 83 80 79 85 88 82 78 88 93 92 85 74 69 70 69 58 20 30 50 55 57 53 52 58 61 64 65 66 66 65 64 63 61 55 48 42 35 24 10 355
77 79 78 80 81 75 67 72 84 88 85 84 87 91 86 75 69 64 59 65 40 52 60 57 58 63 64 66 67 66 64 63 61 59 59 57 56 49 42 35 25 9 1 352
76 80 80 78 82 80 68 66 75 86 87 85 86 90 90 85 79 82 59 17 48 70 69 63 67 69 69 66 65 65 61 56 51 49 48 47 46 41 32 25 14 359 350 348
79 79 80 80 83 80 71 62 69 78 83 80 75 80 90 85 59 47 88 70 68 73 73 70 70 69 70 67 64 60 55 51 49 47 46 45 45 43 37 28 19 7 1 356
76 76 76 78 78 77 80 80 76 71 72 67 57 51 54 75 94 71 68 73 74 75 74 67 67 67 65 64 58 53 47 43 41 41 37 36 33 29 22 15 9 1 356 351
72 70 68 70 76 80 81 84 82 74 77 71 52 44 45 51 67 70 69 72 70 70 67 59 56 58 60 58 54 48 42 36 34 35 34 31 26 21 11 4 2 356 346 340
66 64 63 58 49 54 72 84 88 77 76 88 75 42 47 56 65 68 67 66 63 62 60 55 51 51 52 54 55 50 44 38 33 28 24 21 15 10 4 356 348 343 341 339